Location: Bottens
(46.6171°N, 6.6605°E)
Time: 01:01:00
(UTC+00:00)

Meteor 2-2 Rocket - Visible Passes

Search period start: 23 October 2021 00:00
Search period end: 02 November 2021 00:00
Orbit: 853 x 928 km, 81.3° (Epoch: 22 October)

Date Brightness Start Highest point End Pass type
(mag) Time Alt. Az. Time Alt. Az. Time Alt. Az.
28 Oct 7.2 05:37:07 10° NE 05:38:10 10° NE 05:39:12 10° ENE visible
29 Oct 7.1 05:35:59 10° NNE 05:38:13 12° NE 05:40:26 10° ENE visible
30 Oct 7.0 05:35:20 10° NNE 05:38:16 14° ENE 05:41:12 10° E visible
31 Oct 6.9 05:34:48 10° NNE 05:38:18 16° ENE 05:41:46 10° E visible
01 Nov 6.9 05:34:23 10° NNE 05:38:20 18° ENE 05:42:15 10° E visible
